St. Augustine, FL

6:32 AM EDT on May 26, 2017 (GMT -0400)
Saint Augustine

Weather History for KSGJ - January, 2013

Change the Weather History Date:

Tuesday, January 8, 2013

  Actual Average Record
Temperature  
Mean Temperature 66 °F -  
Max Temperature 71 °F 62 °F 84 °F (1993)
Min Temperature 62 °F 44 °F 30 °F (2002)
Cooling Degree Days 2    
Growing Degree Days 16 (Base 50)    
Moisture  
Dew Point 62 °F    
Average Humidity 90    
Maximum Humidity 97    
Minimum Humidity 78    
Precipitation  
Precipitation 0.00 in - - ()
Sea Level Pressure  
Sea Level Pressure 30.25 in    
Wind  
Wind Speed 6 mph (NNE)    
Max Wind Speed 14 mph    
Max Gust Speed -    
Visibility 8 miles    
Events Rain    
Averages and records for this station are not official NWS values.
T = Trace of Precipitation, MM = Missing Value Source: NWS Daily Summary

Daily Weather History Graph

Daily Weather History Graph

Search for Another Location

Airport or City:

Trip Planner

Search our weather history database for the weather conditions in past years. The results will help you decide how hot, cold, wet, or windy it might be!

Date:

Astronomy

Jan. 08, 2013 Rise Set
Actual Time 7:22 AM EST 5:42 PM EST
Civil Twilight 6:56 AM EST 6:08 PM EST
Nautical Twilight 6:26 AM EST 6:38 PM EST
Astronomical Twilight 5:57 AM EST 7:07 PM EST
Moon 3:55 AM EST (1/8) 2:42 PM EST (1/8)
Length of Visible Light 11h 12m
Length of Day
10h 20m
Waning Crescent, 14% of the Moon is Illuminated
Jan 8
Waning Crescent
Jan 11
New
Jan 18
First Quarter
Jan 26
Full
Feb 3
Last Quarter

Hourly Weather History & Observations

Time (EST) Temp. Dew Point Humidity Pressure Visibility Wind Dir Wind Speed Gust Speed Precip Events Conditions
12:51 AM 62.6 °F 57.2 °F 82% 30.22 in 10.0 mi NNE 3.5 mph - N/A   Overcast
1:48 AM 62.6 °F 59.0 °F 88% 30.22 in 10.0 mi ENE 3.5 mph - N/A   Overcast
1:58 AM 64.0 °F 60.1 °F 87% 30.22 in 10.0 mi NE 3.5 mph - 0.00 in Rain Light Rain
2:06 AM 64.4 °F 60.8 °F 88% 30.22 in 10.0 mi NE 4.6 mph - 0.00 in Rain Light Rain
2:58 AM 64.0 °F 61.0 °F 90% 30.21 in 10.0 mi Calm Calm - 0.00 in   Overcast
3:58 AM 64.0 °F 60.1 °F 87% 30.20 in 10.0 mi NNE 4.6 mph - 0.00 in Rain Light Rain
4:58 AM 64.9 °F 61.0 °F 87% 30.20 in 10.0 mi ENE 8.1 mph - 0.00 in   Overcast
5:04 AM 64.4 °F 60.8 °F 88% 30.20 in 10.0 mi ENE 6.9 mph - N/A   Overcast
5:22 AM 64.4 °F 62.6 °F 94% 30.20 in 10.0 mi ENE 9.2 mph - N/A   Overcast
5:31 AM 64.4 °F 62.6 °F 94% 30.20 in 10.0 mi ENE 9.2 mph - N/A   Overcast
5:36 AM 64.4 °F 62.6 °F 94% 30.20 in 10.0 mi ENE 8.1 mph - N/A   Overcast
5:50 AM 64.4 °F 62.6 °F 94% 30.21 in 10.0 mi ENE 8.1 mph - N/A   Overcast
5:58 AM 64.0 °F 62.1 °F 93% 30.21 in 10.0 mi NE 6.9 mph - N/A   Overcast
6:58 AM 64.9 °F 62.1 °F 90% 30.23 in 10.0 mi North 6.9 mph - N/A   Overcast
7:53 AM 64.4 °F 60.8 °F 88% 30.25 in 7.0 mi North 5.8 mph - N/A   Overcast
7:58 AM 64.0 °F 61.0 °F 90% 30.26 in 4.0 mi North 6.9 mph - N/A   Overcast
8:06 AM 64.4 °F 60.8 °F 88% 30.26 in 7.0 mi North 4.6 mph - N/A   Mostly Cloudy
8:30 AM 64.4 °F 60.8 °F 88% 30.27 in 7.0 mi NNW 4.6 mph - N/A   Overcast
8:36 AM 64.4 °F 60.8 °F 88% 30.27 in 8.0 mi NNE 3.5 mph - N/A   Overcast
8:42 AM 64.4 °F 60.8 °F 88% 30.27 in 8.0 mi NNE 3.5 mph - N/A   Overcast
8:58 AM 64.0 °F 61.0 °F 90% 30.28 in 8.0 mi North 5.8 mph - N/A   Overcast
9:15 AM 64.4 °F 62.6 °F 94% 30.28 in 4.0 mi North 4.6 mph - N/A   Overcast
9:58 AM 69.1 °F 64.0 °F 84% 30.29 in 5.0 mi NNE 8.1 mph - N/A   Haze
10:34 AM 69.8 °F 64.4 °F 83% 30.29 in 10.0 mi NNE 6.9 mph - N/A   Overcast
10:43 AM 69.8 °F 64.4 °F 83% 30.29 in 10.0 mi NNE 5.8 mph - N/A   Overcast
10:58 AM 70.0 °F 64.9 °F 84% 30.29 in 9.0 mi NNE 6.9 mph - N/A   Overcast
11:58 AM 71.1 °F 64.9 °F 81% 30.27 in 10.0 mi NE 4.6 mph - N/A   Overcast
12:58 PM 70.0 °F 64.9 °F 84% 30.25 in 10.0 mi NNE 8.1 mph - N/A   Overcast
1:49 PM 69.8 °F 62.6 °F 78% 30.24 in 5.0 mi North 11.5 mph - N/A   Haze
1:58 PM 68.0 °F 63.0 °F 84% 30.24 in 5.0 mi NNE 13.8 mph - N/A   Haze
2:58 PM 64.9 °F 60.1 °F 84% 30.24 in 5.0 mi North 10.4 mph - N/A   Haze
3:02 PM 64.4 °F 60.8 °F 88% 30.24 in 5.0 mi North 12.7 mph - N/A   Overcast
3:58 PM 63.0 °F 59.0 °F 87% 30.23 in 5.0 mi North 11.5 mph - N/A   Mostly Cloudy
4:41 PM 62.6 °F 59.0 °F 88% 30.24 in 3.0 mi North 11.5 mph - 0.00 in   Overcast
4:58 PM 63.0 °F 60.1 °F 90% 30.24 in 3.0 mi North 10.4 mph - 0.00 in   Overcast
5:58 PM 62.1 °F 60.1 °F 93% 30.24 in 3.0 mi North 8.1 mph - N/A   Overcast
6:28 PM 62.6 °F 60.8 °F 94% 30.25 in 3.0 mi North 6.9 mph - N/A   Overcast
6:58 PM 62.1 °F 60.1 °F 93% 30.25 in 3.0 mi North 5.8 mph - N/A   Overcast
7:34 PM 62.6 °F 60.8 °F 94% 30.25 in 3.0 mi North 6.9 mph - N/A   Overcast
7:58 PM 63.0 °F 61.0 °F 93% 30.25 in 3.0 mi North 6.9 mph - N/A   Overcast
8:58 PM 64.0 °F 63.0 °F 96% 30.25 in 9.0 mi NNE 9.2 mph - N/A   Overcast
9:04 PM 64.4 °F 62.6 °F 94% 30.25 in 9.0 mi NNE 9.2 mph - N/A   Overcast
9:08 PM 64.4 °F 62.6 °F 94% 30.25 in 9.0 mi North 8.1 mph - N/A   Overcast
9:15 PM 64.4 °F 62.6 °F 94% 30.25 in 10.0 mi North 8.1 mph - N/A   Overcast
9:58 PM 64.9 °F 63.0 °F 93% 30.27 in 10.0 mi North 6.9 mph - N/A   Overcast
10:42 PM 64.4 °F 62.6 °F 94% 30.27 in 10.0 mi North 8.1 mph - N/A   Overcast
10:58 PM 64.0 °F 62.1 °F 93% 30.27 in 10.0 mi North 6.9 mph - N/A   Overcast
11:33 PM 64.4 °F 62.6 °F 94% 30.27 in 10.0 mi North 6.9 mph - N/A   Overcast
11:48 PM 64.4 °F 62.6 °F 94% 30.26 in 10.0 mi North 10.4 mph - N/A   Overcast
11:58 PM 64.9 °F 64.0 °F 97% 30.27 in 10.0 mi North 8.1 mph - N/A   Overcast